RH
44 44 44 44 45 46 48 50 51 51 52 54 55 56 55 54 54 55 55 55 54 52 50 49 46 43 42 40 39 38 37 36 35 34 33 34 33 31 29 28 28 29 31 33 33 33 35 37 38 38 37 35 32 28 26 27 29 32 36 38 40 41 43 44 45 45 46 47 47 47 46 44 40 35 33 34 36 38 39 40 41 43 45 47 48
45 45 45 45 45 44 47 50 52 52 51 51 52 53 54 53 52 52 52 52 51 50 49 47 46 44 42 41 40 39 38 36 35 34 33 33 33 32 30 30 29 29 30 30 31 32 35 36 37 35 33 31 28 25 26 30 32 35 37 39 41 42 44 45 45 45 46 46 46 46 47 43 37 33 34 36 39 41 42 43 44 45 46 47 49
44 44 45 45 46 45 45 49 51 51 51 51 51 51 52 52 51 50 49 49 48 47 46 45 44 43 41 40 39 38 36 34 34 33 32 32 33 33 33 33 32 32 31 32 32 33 33 33 33 31 28 26 24 25 29 32 34 36 38 40 41 43 45 44 45 45 45 46 47 48 47 41 36 35 37 40 42 44 45 44 44 45 45 46 47
46 45 45 46 46 46 47 48 49 50 51 51 52 52 50 50 50 49 49 48 47 45 44 44 44 42 40 39 39 37 36 34 34 33 32 32 32 32 33 33 32 31 32 32 33 33 32 31 30 28 26 25 26 29 31 34 35 36 38 39 42 44 44 44 44 44 45 47 49 49 46 39 37 38 39 42 44 45 44 44 43 44 43 44 44
49 47 47 47 46 47 48 48 48 48 49 50 52 52 50 49 47 47 48 48 47 45 44 44 44 42 41 40 39 38 37 36 34 34 33 33 32 32 32 31 32 32 32 32 32 33 33 31 30 27 27 28 29 31 32 34 35 36 38 39 41 43 43 41 42 43 45 49 50 48 43 39 38 39 40 42 43 43 42 42 41 41 41 41 41
51 49 47 47 47 47 46 47 48 47 47 47 49 50 51 50 48 46 47 48 48 46 44 43 42 42 41 40 39 39 38 38 36 35 36 35 35 34 33 32 33 34 34 34 33 33 32 30 29 29 29 29 30 31 32 33 34 35 37 38 38 38 38 37 37 39 44 47 46 44 40 38 38 38 39 39 39 39 38 38 37 37 37 37 37
53 51 48 47 47 47 45 45 47 47 47 47 48 49 50 51 49 47 46 46 47 45 44 42 41 40 39 38 37 37 37 37 37 38 38 38 38 37 36 35 35 36 36 35 34 32 30 30 30 31 30 30 30 31 32 33 34 35 36 36 35 34 32 32 34 37 40 42 41 39 38 37 37 36 36 35 34 34 34 34 35 35 35 35 35
54 52 51 49 49 48 45 43 44 46 47 47 49 49 49 48 49 48 47 47 46 45 43 41 40 38 37 37 37 37 37 37 38 39 39 40 40 39 38 37 38 38 37 36 33 31 31 31 32 32 31 31 32 32 33 34 35 34 33 33 32 30 30 31 34 37 38 38 38 37 36 35 34 32 31 31 31 31 32 33 34 35 35 36 36
53 52 52 51 50 49 47 44 43 44 45 45 46 48 49 47 47 47 47 47 48 47 45 41 39 38 38 38 39 39 39 38 39 39 39 40 40 39 38 38 37 37 37 35 33 32 32 32 32 31 31 31 32 34 34 34 32 31 31 31 30 30 30 32 35 37 37 37 36 35 33 31 29 28 28 28 29 29 30 31 32 34 36 37 37
54 54 52 50 49 48 49 46 43 43 43 43 43 45 47 47 45 44 44 45 46 46 45 41 39 39 41 41 39 38 38 38 38 38 39 40 40 39 38 37 36 35 34 33 32 32 32 30 30 29 29 30 32 33 32 31 30 30 31 31 32 32 32 34 36 36 36 35 34 32 29 27 26 26 27 27 27 28 28 30 31 32 35 37 38
56 55 53 50 48 48 48 47 45 43 43 43 42 43 45 45 43 41 41 42 43 42 41 40 41 40 39 38 37 36 37 37 37 36 37 38 38 37 38 37 35 33 30 30 29 30 30 28 27 27 28 29 30 30 30 30 31 32 33 35 35 35 35 36 36 36 35 33 31 29 26 25 25 26 26 27 27 28 29 30 31 32 33 35 36
57 57 55 52 50 49 48 47 46 45 44 44 43 42 43 44 42 40 39 39 39 39 39 39 41 40 37 35 36 36 35 34 33 33 34 35 35 35 36 34 33 32 30 29 28 27 27 25 25 26 26 27 28 29 30 32 33 35 36 38 38 37 36 35 35 34 32 30 28 26 25 25 26 26 27 28 29 30 31 31 32 32 33 34 35
56 56 55 55 53 52 49 47 46 45 44 44 43 42 42 43 43 40 38 38 37 37 38 38 40 41 38 36 35 34 32 32 33 32 33 34 34 33 33 32 31 30 29 28 27 26 26 25 25 26 26 27 29 31 33 34 35 36 37 37 36 35 35 34 33 32 29 27 26 25 25 26 28 29 30 31 32 32 33 34 34 34 35 35 35
55 55 54 54 53 52 50 48 47 45 44 44 42 41 40 42 43 42 39 38 37 36 36 37 40 41 37 36 35 33 32 33 34 34 34 34 33 31 30 29 30 30 30 29 27 27 27 27 27 27 27 29 32 33 34 36 35 35 36 35 33 33 34 33 32 29 28 26 26 26 28 30 31 33 34 34 35 35 36 37 37 37 38 38 38
53 53 53 53 52 51 49 49 48 47 46 46 44 41 39 40 42 43 40 39 38 36 35 36 40 39 36 36 35 35 35 34 34 35 35 34 32 30 28 28 30 30 30 30 30 30 30 30 30 30 32 33 33 34 36 36 34 34 34 33 33 34 33 32 30 28 28 27 27 29 31 33 35 35 36 37 37 38 39 39 40 40 40 40 41
52 51 51 51 52 50 48 48 47 48 48 47 45 42 40 40 41 43 41 40 39 37 35 35 37 39 38 37 34 37 38 35 35 34 34 34 31 28 27 27 29 30 30 31 32 33 33 33 33 34 36 36 35 36 36 36 35 35 34 33 33 33 32 30 28 28 28 29 30 33 35 36 38 39 40 41 41 42 43 43 43 43 43 43 43
51 50 51 51 50 48 45 45 46 47 48 46 45 43 42 41 42 43 41 40 40 37 35 34 36 39 40 38 37 39 39 36 37 36 33 34 30 26 27 28 29 29 29 30 32 34 34 33 34 37 38 38 39 39 38 37 36 35 34 33 33 32 30 29 29 29 31 32 35 37 39 41 42 43 43 45 45 46 47 48 47 46 45 45 44
49 47 47 49 48 47 45 46 46 47 46 45 44 43 42 43 43 43 41 41 39 37 37 36 37 39 40 38 38 39 37 36 38 36 34 33 29 26 27 27 28 27 28 30 32 33 32 33 35 38 39 40 41 41 40 37 35 34 33 33 32 31 31 30 30 32 34 37 40 42 44 45 45 46 47 49 49 48 48 49 49 48 46 45 44
47 46 45 47 48 48 48 48 48 47 44 44 44 42 42 43 43 43 42 42 40 38 40 39 37 39 39 38 37 36 36 36 38 37 35 33 28 26 28 27 27 27 28 30 31 31 32 34 36 38 39 42 43 43 40 36 32 32 32 33 32 32 32 32 33 35 38 41 44 45 46 46 47 48 49 49 50 49 49 49 49 48 46 45 44
49 47 45 46 47 48 49 49 49 48 45 44 44 42 42 41 41 42 42 42 40 40 42 40 39 40 38 38 37 36 36 36 36 36 35 33 28 27 28 27 27 28 29 30 30 30 32 35 37 39 43 46 47 46 42 38 34 32 33 33 33 33 34 34 35 38 41 43 44 45 45 46 47 48 48 48 49 50 49 49 50 49 46 44 43
48 47 46 45 46 46 46 47 48 49 48 46 44 42 41 39 39 39 40 41 41 42 43 40 41 40 38 37 36 36 36 36 35 35 33 32 30 29 29 28 28 28 29 30 30 31 33 35 38 42 46 48 49 48 45 41 36 33 34 34 33 34 35 35 37 39 41 42 43 44 45 47 48 48 48 49 50 50 51 50 50 50 47 45 44
47 46 45 45 47 46 45 45 46 47 47 45 44 43 41 38 37 36 37 39 40 41 41 40 41 39 37 36 35 36 36 35 36 36 33 31 29 30 29 28 29 29 29 30 31 32 34 36 40 44 46 48 48 48 46 42 36 32 33 34 34 36 37 37 38 39 40 41 42 44 46 48 49 49 50 51 51 51 52 52 51 50 48 45 44
46 44 43 43 45 45 44 44 43 43 43 41 40 41 40 39 37 36 35 36 37 38 39 39 39 38 38 37 35 37 36 34 36 35 34 32 30 30 30 28 29 29 29 30 32 33 34 37 41 45 46 47 48 46 45 41 34 31 33 35 36 37 38 37 37 37 38 40 43 46 48 49 50 51 52 52 53 53 53 52 52 51 49 46 45
44 43 42 41 42 41 41 42 41 39 39 38 38 39 39 39 38 37 36 34 34 36 37 38 37 37 40 38 35 36 35 33 35 35 33 32 29 30 31 28 29 30 29 30 32 34 36 40 43 45 46 47 47 46 43 39 34 32 33 35 36 36 36 36 36 37 39 43 46 49 51 52 53 53 54 54 54 53 52 52 53 52 51 48 45
41 41 40 40 39 38 37 39 39 38 38 38 38 38 38 38 37 37 36 34 34 34 34 36 36 36 39 37 33 34 35 34 34 35 33 30 29 31 30 29 30 31 30 30 32 35 38 41 43 44 46 46 47 45 41 37 33 31 32 33 34 34 35 36 37 39 44 47 51 53 54 54 54 53 54 55 53 52 51 51 52 52 51 49 47
37 37 38 37 37 36 35 35 37 38 37 37 37 37 38 38 38 37 36 35 34 33 33 34 34 32 34 34 33 35 37 36 34 34 35 35 34 32 30 29 31 31 31 31 33 35 38 40 42 43 44 45 45 42 38 34 31 30 30 31 32 33 35 37 40 43 48 52 53 55 54 53 52 52 53 53 52 50 50 50 50 50 51 50 47
34 33 34 34 34 34 34 34 34 35 36 36 36 37 38 39 40 39 39 36 33 32 33 34 34 32 31 31 33 35 36 36 35 35 36 35 32 31 30 30 32 33 34 34 33 34 36 38 40 41 42 42 41 38 33 29 28 28 30 31 32 34 35 38 42 46 51 54 55 55 53 51 50 51 51 51 50 49 49 49 49 49 49 47 45
32 31 31 31 32 32 33 33 33 34 34 35 35 36 37 38 39 40 40 38 34 33 33 33 33 34 33 31 31 34 35 35 36 36 33 30 29 30 31 31 33 35 37 37 36 35 34 35 37 39 38 39 38 33 28 27 27 27 29 31 33 34 35 38 43 49 53 54 55 54 52 50 49 49 49 50 49 49 49 49 49 48 45 43 42
31 30 29 29 30 30 31 32 33 33 34 34 34 35 35 36 37 39 40 40 37 35 34 33 33 33 34 32 31 33 33 33 35 35 30 28 29 31 33 33 34 36 38 40 39 36 35 35 37 38 37 37 35 31 27 27 27 27 28 31 33 34 36 38 43 49 52 54 55 53 50 49 49 48 48 49 49 50 50 50 49 46 42 40 40
31 30 29 28 28 28 29 31 32 33 34 34 34 34 34 35 35 37 38 39 40 39 37 35 36 35 34 34 33 33 33 33 34 33 30 28 30 31 33 34 35 36 38 40 39 36 35 36 38 39 38 37 35 32 29 28 27 26 27 30 33 35 36 38 43 48 51 53 54 52 50 48 48 46 46 47 49 49 48 49 48 45 41 39 37
31 30 29 28 27 28 28 29 30 31 33 33 34 34 34 34 34 35 35 37 39 42 42 40 39 38 37 36 35 34 34 33 33 33 30 29 30 31 33 34 36 37 37 38 39 37 35 35 37 39 39 39 37 33 30 28 27 26 26 29 33 36 37 38 42 46 50 51 51 50 48 47 46 46 45 45 46 47 47 46 46 44 42 39 35
30 30 30 28 27 27 27 28 29 29 31 32 33 34 34 34 33 33 33 35 38 40 42 42 41 40 39 38 37 35 34 32 30 31 31 30 30 31 32 34 36 37 37 37 38 36 34 34 35 36 37 38 37 35 32 28 26 25 24 27 32 35 37 39 42 46 49 51 50 49 47 47 47 46 45 44 44 45 45 45 45 44 42 39 34
28 29 29 29 27 26 26 27 28 28 28 29 30 31 32 33 34 34 34 35 37 37 38 40 41 40 39 37 36 35 34 31 30 30 30 30 30 31 32 34 35 36 37 36 36 34 33 33 33 33 33 32 33 34 33 30 28 25 24 25 30 33 36 40 44 46 49 51 51 50 49 47 46 45 44 43 42 42 42 42 42 41 40 37 33
26 27 27 28 28 27 26 26 27 27 27 27 28 28 29 29 31 33 34 35 35 35 35 36 38 39 40 38 36 36 34 32 30 30 29 30 31 32 32 33 34 35 35 36 36 35 33 32 31 31 31 29 29 29 29 29 28 27 26 25 28 32 36 40 44 47 50 52 52 49 47 45 43 43 44 43 41 40 39 38 37 37 36 34 32
25 25 26 26 27 27 26 26 26 26 26 26 26 26 27 28 29 30 32 33 34 34 34 34 35 36 38 38 37 36 35 33 31 30 30 30 31 31 31 32 32 33 33 34 35 35 33 31 30 30 29 28 27 26 26 26 25 26 27 27 28 31 34 38 42 47 51 51 49 44 42 42 42 42 43 43 41 39 37 36 35 34 33 32 31
24 24 24 25 25 26 25 25 25 25 26 26 26 25 25 27 28 30 30 31 32 33 33 33 33 34 35 37 37 36 35 34 33 32 31 31 31 31 31 30 31 31 32 32 33 34 33 31 30 30 28 27 26 25 25 25 24 24 24 24 25 28 32 36 40 46 50 49 44 40 40 42 43 42 42 42 41 39 37 36 34 33 33 31 30
23 23 23 23 24 24 24 24 24 24 25 25 26 26 25 25 26 28 29 30 30 31 32 33 33 32 33 34 36 36 35 34 33 32 32 32 32 31 31 31 30 30 31 31 32 32 31 31 30 29 28 27 26 25 25 25 25 23 22 21 21 24 28 32 36 42 47 48 44 40 40 43 43 42 41 41 40 39 38 37 35 34 34 33 31
22 21 21 22 22 22 23 23 23 23 24 24 25 25 25 25 25 26 27 28 29 29 31 32 32 32 32 33 34 34 34 34 34 33 33 33 32 32 31 31 30 30 30 30 30 30 29 29 29 28 27 26 26 25 26 26 25 24 23 22 21 21 22 25 30 35 42 45 44 41 40 42 44 42 40 39 39 38 37 36 36 35 35 34 32
22 21 20 20 20 21 21 22 22 22 22 23 23 23 23 24 25 26 25 26 27 28 29 30 31 32 32 32 33 33 33 33 33 34 34 33 33 33 32 32 31 30 30 30 29 28 28 27 27 27 26 26 25 24 25 26 26 25 24 24 23 22 21 22 25 29 35 41 42 41 39 40 43 43 40 38 38 38 38 39 39 37 36 37 35
25 23 21 20 19 19 19 20 21 21 21 21 21 21 21 22 23 24 24 24 24 25 26 28 29 31 31 32 32 32 32 32 32 33 34 34 34 33 33 32 32 31 31 30 29 28 28 27 27 27 26 25 25 24 24 25 26 25 25 25 26 25 23 22 24 26 30 36 40 41 39 39 41 42 41 41 41 41 42 44 43 38 36 38 38
28 26 25 23 21 20 19 18 18 19 19 20 20 20 19 20 20 22 23 23 22 23 23 25 27 29 30 31 31 31 31 32 32 32 33 33 33 33 33 33 32 32 31 31 30 29 28 28 27 26 25 25 25 24 24 24 25 26 26 25 26 27 25 24 25 26 27 31 37 40 39 37 39 41 43 44 45 46 48 49 46 40 36 38 40
30 30 28 27 25 23 21 19 18 17 17 17 17 18 18 18 19 20 21 22 22 22 22 22 24 26 28 30 30 30 31 31 32 32 32 32 32 32 32 32 32 31 31 31 30 30 29 29 28 27 26 25 25 24 24 24 24 26 27 27 27 28 27 27 27 28 28 30 35 39 39 37 39 43 45 46 47 49 50 51 48 42 36 37 40
32 31 31 30 28 26 24 21 19 18 16 16 16 16 16 16 17 17 19 21 22 22 21 21 22 24 25 28 29 29 29 29 30 31 31 31 31 30 30 30 31 30 30 29 29 28 28 28 28 27 26 25 25 24 24 24 25 27 29 29 29 30 30 29 30 30 30 32 35 38 41 41 42 45 47 47 49 51 50 50 49 44 38 37 40
34 33 32 31 30 30 28 25 23 19 16 15 16 16 15 15 15 15 16 18 20 21 21 20 21 22 24 25 27 27 27 27 27 27 28 28 28 28 28 29 29 30 29 29 28 27 26 25 25 24 24 23 23 24 24 25 27 29 30 30 30 32 32 31 31 31 31 32 34 38 42 44 44 45 47 47 48 51 50 49 49 46 40 39 41
36 35 34 33 32 32 31 29 27 23 20 17 16 15 15 15 15 15 15 16 17 20 21 21 21 21 23 23 24 25 25 25 25 24 25 25 25 25 26 26 27 27 28 27 26 26 24 23 22 21 19 19 19 20 20 23 27 29 30 31 31 31 32 32 31 31 31 31 34 37 41 44 43 43 46 47 47 50 49 48 48 46 43 41 41
37 36 35 35 34 34 33 31 30 28 25 22 19 18 17 16 16 16 16 16 16 17 19 20 21 21 22 22 23 23 24 24 24 23 23 23 23 23 23 23 23 23 24 25 25 24 23 22 20 18 16 16 16 16 16 18 22 25 27 29 30 31 32 32 32 31 30 31 34 36 38 42 43 44 46 47 47 49 49 47 48 47 44 42 40
42 39 37 36 35 35 34 33 32 31 29 27 25 23 21 20 20 20 20 20 19 17 17 18 20 21 21 21 22 22 23 23 22 22 22 22 21 21 21 21 21 21 21 22 23 23 22 22 21 20 19 18 17 17 17 18 20 23 25 27 28 28 30 31 31 31 30 29 31 33 36 40 45 46 46 47 47 47 47 46 47 47 45 40 38
47 44 41 39 37 35 35 34 33 32 31 30 29 27 25 25 26 27 25 23 22 20 18 17 18 20 21 21 21 21 21 21 21 21 21 21 21 21 20 20 19 19 19 20 21 22 22 21 21 21 21 21 20 20 20 21 22 23 24 25 26 25 27 28 29 29 30 29 29 31 34 38 44 46 46 47 46 45 45 44 45 47 44 39 39
47 46 44 42 40 38 36 35 34 33 31 31 30 30 29 29 30 30 28 27 26 23 19 18 17 18 19 20 20 20 20 20 20 20 20 21 21 20 20 19 19 18 17 18 19 20 21 21 21 20 21 21 22 22 22 23 25 26 26 26 25 25 25 26 25 28 32 32 30 30 32 36 42 44 45 46 45 42 42 43 44 46 44 40 40
46 45 45 44 43 41 39 37 35 33 31 30 30 30 30 31 32 32 30 29 28 26 22 19 17 18 18 19 19 20 19 19 19 20 21 21 21 21 20 20 19 17 16 17 18 18 19 20 20 20 20 20 22 22 22 23 24 26 28 28 27 28 27 26 25 27 31 32 30 29 32 35 39 41 41 42 42 40 41 42 43 45 45 43 43
50 47 46 44 42 41 39 37 35 33 31 30 30 29 29 29 31 31 31 31 30 27 24 21 19 18 18 18 19 19 19 19 19 20 21 22 21 21 21 22 21 19 17 17 18 18 19 19 19 19 19 20 20 20 20 20 22 24 27 28 30 30 29 28 27 27 30 33 30 28 31 35 39 40 39 39 40 39 39 41 42 45 47 47 45